Lapse_Rate
5.3 4.4 3.8 3.3 2.8 2.1 1.5 0.8 0.1 0.7 1.8 2.4 3.5 3.3 2.8 1.5 1.2 0.8 0.2 0.3 0.4 0.8 1.9 1.4 1.4 3.0 4.6 4.3 4.0 4.8 6.4 6.5
5.7 4.7 4.0 3.7 2.5 2.1 1.3 0.7 -0.2 -0.5 -0.2 1.0 2.6 2.1 2.3 2.3 1.1 -0.0 -0.4 -0.3 -0.1 -0.0 0.2 0.9 2.2 2.4 3.4 4.0 5.1 4.3 5.0 5.5
5.5 4.6 3.5 2.6 2.3 1.7 1.3 0.9 0.5 0.3 0.6 0.5 0.1 0.5 1.2 1.3 0.2 0.1 -0.6 -0.8 -0.3 0.6 0.4 0.8 1.3 2.0 2.9 3.6 4.3 5.4 6.2 6.8
5.7 4.8 3.3 2.7 1.9 1.5 1.3 1.0 0.4 -0.3 -0.8 0.1 1.0 1.7 2.0 1.8 0.3 0.2 -0.6 -1.0 -0.3 -0.3 0.5 0.9 0.6 1.1 1.8 2.5 4.0 4.4 5.4 6.6
5.3 4.3 2.9 1.9 0.9 1.1 0.9 0.7 0.4 0.0 -0.5 -0.3 -0.8 -0.4 -0.3 -1.0 -1.2 -0.8 -0.9 -1.2 -0.3 -0.0 0.0 0.4 0.6 0.6 1.1 1.2 2.1 2.8 4.1 5.0
5.7 5.3 3.4 2.1 1.6 1.1 0.7 0.5 0.3 0.2 0.6 0.3 0.4 0.3 0.2 -0.0 -0.4 -1.1 -0.3 -0.2 0.1 0.8 0.7 -0.4 -0.4 0.9 0.6 0.7 1.5 2.1 3.2 4.2
5.9 4.7 4.8 3.9 3.4 2.4 1.5 0.3 0.6 0.0 1.1 1.6 1.4 0.9 0.5 0.6 0.8 0.2 0.1 0.1 0.3 0.3 0.6 0.7 0.6 0.3 0.6 1.0 0.9 0.9 1.1 2.1
5.7 5.1 3.8 3.3 2.5 1.5 1.4 1.4 1.0 0.9 0.8 2.2 2.8 2.7 2.8 2.8 2.0 0.9 1.2 1.2 1.2 1.3 0.6 0.6 1.7 1.9 1.7 1.7 2.1 1.8 1.8 1.9
5.7 4.5 3.8 3.1 2.0 1.6 1.3 2.0 1.3 1.7 1.7 2.3 3.5 3.5 3.6 3.8 3.8 3.2 3.5 3.2 3.2 2.2 1.4 1.9 1.8 2.3 3.1 3.4 3.5 3.2 2.3 2.7
5.7 4.9 4.0 3.2 2.5 2.1 1.9 2.4 2.6 2.4 2.0 2.0 2.9 4.2 3.5 3.9 4.9 5.4 4.5 4.4 4.9 4.4 4.1 4.4 4.2 3.7 3.9 4.6 4.8 5.3 5.0 3.9
5.5 4.5 3.6 3.4 3.4 3.4 2.8 2.5 2.2 2.7 2.9 3.3 3.9 4.5 5.1 5.8 6.9 6.5 5.6 5.5 5.1 4.7 4.3 4.0 4.1 4.6 5.0 5.3 5.2 5.1 5.2 5.4
5.3 4.7 3.8 3.6 4.1 3.8 3.4 3.3 3.0 2.8 2.9 3.4 3.8 4.3 4.6 4.9 5.2 4.7 4.5 5.0 5.0 5.0 4.8 4.4 4.9 4.5 4.3 4.9 4.7 4.9 6.0 6.0
4.8 4.3 4.2 3.7 3.9 4.2 3.5 3.3 3.0 3.0 3.3 3.7 3.9 4.0 4.1 4.6 5.0 5.1 5.5 5.2 5.2 5.5 6.1 6.7 6.6 6.2 6.3 6.0 5.4 5.0 4.7 4.9
5.1 5.1 4.2 4.0 4.3 3.8 3.8 3.3 3.0 3.0 3.5 3.3 3.5 3.6 3.9 4.3 4.3 4.4 4.9 5.1 5.8 6.3 7.0 7.6 6.9 6.9 6.4 5.8 5.7 4.6 4.3 4.4
6.5 5.7 5.3 4.8 4.7 4.3 3.9 3.4 2.8 2.8 2.8 3.0 3.5 3.2 3.7 3.8 3.8 3.7 4.0 4.9 5.5 6.0 6.6 6.9 7.2 6.8 6.6 5.9 6.0 6.3 5.4 5.4
7.2 6.2 5.7 5.6 5.5 4.8 4.1 2.9 2.4 2.4 2.3 2.2 2.2 3.0 3.3 3.2 3.0 2.8 3.0 3.7 4.2 4.3 4.7 5.7 7.0 6.8 6.4 5.5 5.4 5.8 5.7 4.6
6.2 6.4 5.6 6.0 5.1 4.4 3.6 2.5 1.7 2.0 1.8 1.6 1.6 2.1 2.1 1.6 1.4 1.7 2.0 2.7 2.7 2.9 2.9 3.8 4.9 5.7 5.2 5.0 4.9 5.4 5.4 4.9
6.3 5.7 5.8 4.9 4.1 4.2 3.3 2.5 2.3 1.9 1.6 1.5 1.4 1.5 1.0 1.0 1.4 1.2 1.2 2.0 2.8 2.9 2.5 2.9 2.9 4.0 4.4 3.7 4.1 4.8 4.8 4.8
5.8 5.9 5.3 4.4 4.3 4.5 4.0 3.0 2.3 1.8 1.5 1.5 1.6 1.1 0.9 1.4 1.5 1.2 1.1 2.4 2.8 2.5 2.4 2.8 2.4 3.1 3.5 2.8 2.2 2.8 3.8 3.3
Wind_Speed
14 16 16 16 16 16 16 15 18 15 10 7 6 8 8 12 12 13 17 14 13 10 6 7 7 3 6 8 13 13 13 10
13 14 15 15 17 17 18 17 17 13 11 9 5 6 6 6 10 16 17 17 17 13 8 9 9 6 5 8 9 10 9 6
12 13 14 16 15 15 15 16 15 13 9 9 5 6 4 4 9 12 15 18 17 13 10 8 8 7 8 7 7 9 11 12
9 10 12 12 14 14 14 14 14 13 14 8 7 4 5 5 9 8 11 14 14 14 13 8 8 7 6 9 9 9 8 9
6 6 8 10 10 10 11 12 14 13 14 11 12 8 8 8 8 9 9 13 15 13 13 11 10 7 9 8 8 10 9 8
4 8 9 10 11 11 11 12 13 13 13 12 9 9 8 8 9 13 11 9 12 13 12 11 10 9 9 11 11 10 9 9
5 6 7 9 10 11 10 11 11 12 11 11 11 12 11 10 11 9 10 9 9 10 13 11 10 9 10 10 12 13 10 11
3 7 10 11 12 13 12 13 13 13 13 13 12 11 11 11 11 9 13 10 10 11 13 12 10 11 12 10 12 13 12 11
5 7 9 10 12 13 14 15 14 15 14 14 12 13 8 8 10 9 9 9 11 14 13 14 14 13 11 10 9 10 12 12
5 7 8 10 12 12 12 13 14 15 15 13 13 13 13 12 13 11 10 11 11 14 14 14 14 13 13 12 9 11 12 12
4 5 8 8 9 9 11 12 14 13 13 12 11 13 12 12 11 12 13 12 13 13 14 14 13 13 13 13 11 11 13 10
5 5 7 8 8 10 10 11 12 13 13 13 13 12 12 12 12 13 13 14 14 14 14 14 14 14 14 13 14 14 14 13
5 5 6 8 9 9 10 10 11 11 11 11 12 12 12 12 12 13 14 14 14 15 14 13 14 14 14 14 15 15 15 16
6 5 7 7 8 9 9 9 10 10 10 12 12 12 12 12 13 13 13 13 14 15 14 15 16 14 14 14 14 16 16 16
6 5 5 6 6 8 8 9 9 10 11 11 11 12 12 11 11 12 13 14 15 15 15 15 15 14 15 15 14 13 13 13
6 5 5 4 5 7 7 8 9 10 10 10 11 11 11 11 11 12 13 14 15 17 16 17 16 14 13 17 15 15 15 14
7 6 6 4 6 7 8 8 9 9 9 10 10 10 10 11 12 13 14 15 15 15 16 17 18 14 29 28 22 14 16 17
7 7 5 5 5 6 8 8 9 9 9 10 11 11 12 12 13 13 13 13 14 15 15 15 16 19 33 30 26 13 14 16
8 7 6 5 4 7 8 8 9 9 10 11 12 12 11 12 12 12 12 12 13 13 14 16 16 18 34 31 26 14 13 16
Wind_Direction
47 44 41 39 36 36 34 29 20 14 13 7 18 28 28 29 30 23 14 5 359 348 332 337 336 305 225 215 224 218 250 229
53 46 41 38 38 33 29 27 23 21 15 4 359 7 8 18 13 8 6 358 353 349 349 343 340 323 291 255 248 244 240 235
50 44 42 40 37 32 29 28 24 23 19 2 341 331 347 12 8 1 4 355 349 347 343 336 336 320 302 274 260 247 248 240
56 46 40 35 35 29 26 25 23 22 14 8 1 338 339 354 354 351 351 354 342 341 336 331 331 323 304 302 286 268 255 241
78 61 52 43 39 31 29 25 22 19 15 13 13 4 352 345 335 337 341 354 340 335 329 330 327 320 306 304 301 295 290 271
82 39 37 30 20 22 26 22 22 16 11 10 6 359 347 338 338 339 336 337 330 329 330 328 322 314 311 304 297 288 283 275
53 48 36 31 23 18 16 22 19 12 7 4 5 359 350 345 339 336 335 331 322 323 323 319 313 302 303 303 297 288 283 276
34 32 27 20 16 20 14 12 15 11 10 3 0 358 348 341 342 339 330 327 326 320 322 322 313 306 300 290 287 282 277 270
62 39 28 16 18 17 16 3 11 7 8 357 356 354 353 347 341 334 324 325 320 322 325 319 311 307 297 292 281 277 271 267
58 37 28 22 17 18 9 2 6 4 2 355 355 350 353 347 340 338 332 328 325 327 323 317 314 310 303 292 281 275 272 269
84 45 32 28 20 14 14 9 6 0 359 357 353 352 349 346 345 343 341 339 336 333 326 322 320 313 305 296 286 277 271 265
97 55 44 34 22 19 16 13 8 7 2 358 356 356 353 354 352 353 349 347 349 344 338 332 323 322 316 307 298 288 277 274
91 68 50 36 21 17 16 11 12 8 3 2 5 360 360 4 1 360 356 354 355 353 347 338 336 327 326 318 305 295 284 276
98 71 52 35 21 17 10 7 5 4 4 10 7 6 7 7 9 8 6 3 4 2 356 353 349 344 336 328 316 301 287 276
110 84 66 45 33 26 16 11 11 5 13 12 6 5 360 2 10 12 12 12 11 6 2 357 355 351 354 349 341 337 332 305
113 99 85 54 38 27 28 25 23 19 22 16 7 5 2 4 10 13 11 13 13 9 5 3 4 8 6 6 1 356 358 355
119 111 96 73 45 39 33 30 30 27 30 21 10 8 4 8 11 15 18 17 15 9 7 5 6 14 14 13 14 9 10 18
129 112 108 79 60 49 42 39 39 38 34 25 18 12 10 9 12 14 17 19 15 17 12 8 10 18 16 14 12 16 14 22
126 126 109 82 77 71 61 49 47 41 36 26 20 13 15 12 10 14 19 22 21 20 17 15 15 17 18 16 13 13 17 23